McComb, MS

12:31 AM CDT on May 29, 2017 (GMT -0500)
McComb-Pike County-Lewis

Weather History for KMCB - July, 2013

Change the Weather History Date:

Saturday, July 13, 2013

  Actual Average Record
Temperature  
Mean Temperature 80 °F -  
Max Temperature 89 °F 91 °F 102 °F (1980)
Min Temperature 72 °F 70 °F 37 °F (1998)
Cooling Degree Days 16    
Growing Degree Days 30 (Base 50)    
Moisture  
Dew Point 68 °F    
Average Humidity 68    
Maximum Humidity 87    
Minimum Humidity 51    
Precipitation  
Precipitation 0.00 in - - ()
Sea Level Pressure  
Sea Level Pressure 29.92 in    
Wind  
Wind Speed 4 mph (NNE)    
Max Wind Speed 7 mph    
Max Gust Speed -    
Visibility 10 miles    
Events      
Averages and records for this station are not official NWS values.
T = Trace of Precipitation, MM = Missing Value Source: NWS Daily Summary

Daily Weather History Graph

Daily Weather History Graph

Search for Another Location

Airport or City:

Trip Planner

Search our weather history database for the weather conditions in past years. The results will help you decide how hot, cold, wet, or windy it might be!

Date:

Astronomy

Jul. 13, 2013 Rise Set
Actual Time 6:07 AM CDT 8:07 PM CDT
Civil Twilight 5:40 AM CDT 8:35 PM CDT
Nautical Twilight 5:06 AM CDT 9:08 PM CDT
Astronomical Twilight 4:31 AM CDT 9:43 PM CDT
Moon 11:00 AM CDT (7/13) 11:14 PM CDT (7/13)
Length of Visible Light 14h 55m
Length of Day
14h 00m
Waxing Crescent, 26% of the Moon is Illuminated
Jul 13
Waxing Crescent
Jul 15
First Quarter
Jul 22
Full
Jul 29
Last Quarter
Aug 6
New

Hourly Weather History & Observations

Time (CDT) Temp. Heat Index Dew Point Humidity Pressure Visibility Wind Dir Wind Speed Gust Speed Precip Events Conditions
12:53 AM 77.0 °F - 64.9 °F 66% 29.92 in 10.0 mi North 4.6 mph - N/A   Clear
1:53 AM 75.0 °F - 64.9 °F 71% 29.92 in 10.0 mi Calm Calm - N/A   Clear
2:53 AM 73.9 °F - 66.0 °F 76% 29.91 in 10.0 mi Calm Calm - N/A   Clear
3:53 AM 73.0 °F - 66.0 °F 79% 29.91 in 10.0 mi Calm Calm - N/A   Clear
4:53 AM 73.0 °F - 66.0 °F 79% 29.90 in 10.0 mi North 3.5 mph - N/A   Clear
5:53 AM 72.0 °F - 66.0 °F 81% 29.91 in 10.0 mi North 6.9 mph - N/A   Scattered Clouds
6:53 AM 72.0 °F - 66.0 °F 81% 29.93 in 8.0 mi NNE 5.8 mph - N/A   Clear
7:53 AM 75.0 °F - 66.9 °F 76% 29.94 in 9.0 mi NNE 5.8 mph - N/A   Clear
8:53 AM 78.1 °F - 68.0 °F 71% 29.95 in 10.0 mi NE 5.8 mph - N/A   Clear
9:53 AM 81.0 °F 84.1 °F 69.1 °F 67% 29.95 in 10.0 mi NE 3.5 mph - N/A   Mostly Cloudy
10:53 AM 84.0 °F 89.0 °F 71.1 °F 65% 29.95 in 10.0 mi Variable 3.5 mph - N/A   Partly Cloudy
11:53 AM 86.0 °F 90.1 °F 69.1 °F 57% 29.95 in 10.0 mi North 4.6 mph - N/A   Partly Cloudy
12:53 PM 86.0 °F 88.8 °F 66.9 °F 53% 29.95 in 10.0 mi ENE 4.6 mph - N/A   Scattered Clouds
1:53 PM 87.1 °F 91.3 °F 69.1 °F 55% 29.93 in 10.0 mi NNE 6.9 mph - N/A   Mostly Cloudy
2:53 PM 88.0 °F 91.4 °F 68.0 °F 51% 29.91 in 10.0 mi Variable 4.6 mph - N/A   Clear
3:53 PM 87.1 °F 90.6 °F 68.0 °F 53% 29.89 in 10.0 mi ENE 5.8 mph - N/A   Clear
4:53 PM 89.1 °F 93.7 °F 69.1 °F 52% 29.90 in 10.0 mi Variable 5.8 mph - N/A   Clear
5:53 PM 86.0 °F 90.1 °F 69.1 °F 57% 29.90 in 10.0 mi NNE 6.9 mph - N/A   Partly Cloudy
6:53 PM 84.9 °F 88.2 °F 68.0 °F 57% 29.90 in 10.0 mi North 5.8 mph - N/A   Clear
7:53 PM 82.0 °F 84.9 °F 68.0 °F 62% 29.91 in 10.0 mi North 3.5 mph - N/A   Partly Cloudy
8:53 PM 79.0 °F - 70.0 °F 74% 29.91 in 10.0 mi Calm Calm - N/A   Partly Cloudy
9:53 PM 77.0 °F - 69.1 °F 76% 29.92 in 8.0 mi North 4.6 mph - N/A   Clear
10:53 PM 75.9 °F - 66.9 °F 74% 29.94 in 10.0 mi NNE 4.6 mph - N/A   Clear
11:53 PM 73.0 °F - 69.1 °F 87% 29.95 in 9.0 mi Calm Calm - N/A   Clear